[[{"header":{"parameterUnit":"m.s-1","parameterCategory":1,"la1":30.2991,"la2":30.254,"lo1":-89.0895,"lo2":-89.0444,"dy":0.0017,"dx":0.0017,"nx":28,"ny":28,"refTime":"2025-01-14T09:00:00:Z","depth":0,"parameterNumber":2,"parameterNumberName":"U-component_of_WINDS"},"data":[0,0,0,0,0,0,0,0,0,0,0,0,0,0,0,0,0,0,0,0,0,0,0,0,0,0,0,0,0,0,0,0,0,0,0,0,0,0,0,0,0,0,0,0,0,0,0,0,0,0,0,0,0,0,0,0,0,0,-0.9493,-0.9495,0,-0.968,-0.9682,-0.9684,-0.9665,-0.9662,-0.9659,-0.9656,-0.9859,-0.9867,-0.9875,0,0,0,0,0,0,0,0,0,0,0,0,0,-0.9129,-0.9136,-0.9493,-0.9495,-0.9498,-0.968,-0.9682,-0.9685,-0.9666,-0.9662,-0.9658,-0.9655,-0.9857,-0.9866,-0.9876,0,0,0,0,0,0,0,0,0,0,0,0,0,-0.9299,-0.9138,-0.9493,-0.9509,-0.9513,-0.9679,-0.9683,-0.9686,-0.9666,-0.9662,-0.9657,-0.9653,-0.9854,-0.9865,-0.9878,-1.0043,0,0,-0.9915,-0.992,0,0,0,0,0,0,0,0,-0.929,-0.9313,-0.9505,-0.9509,-0.9513,-0.9644,-0.9629,-0.9806,-0.9667,-0.9608,-0.9656,-0.9651,-0.9792,-0.9809,-0.9855,-1.0052,-1.0061,-0.9916,-0.9924,-0.9929,-0.9932,0,0,0,0,0,0,0,-0.9278,-0.9304,-0.9567,-0.9508,-0.9513,-0.9511,-0.953,-0.9662,-0.9724,-0.9613,-0.9612,-0.9634,-0.9794,-0.9843,-0.9859,-1.0064,-0.9916,-0.9927,-0.9934,-0.9939,-1.0409,-1.0414,0,0,0,0,0,0,-0.926,-0.9295,-0.9561,-0.9573,-0.9387,-0.9521,-0.9543,-0.9607,-0.9722,-0.9735,-0.9638,-0.9632,-0.9824,-0.9845,-0.9866,-1.007,-0.9929,-0.994,-0.9947,-1.0404,-1.041,-1.0415,0,0,0,0,0,0,-0.9253,-0.9284,-0.9554,-0.9434,-0.9468,-0.9532,-0.9604,-0.9613,-0.9662,-0.974,-0.9752,-0.9676,-0.9821,-0.9849,-0.9999,-1.0076,-0.9946,-0.9957,-1.0398,-1.0406,-1.0413,-1.0476,0,0,0,0,0,0,-0.9242,-0.9281,-0.9343,-0.9435,-0.9474,-0.968,-0.9609,-0.962,-0.9682,-0.9677,-0.9779,-0.9792,-0.982,-0.998,-1.0011,-1.0091,-0.9967,-1.0391,-1.0401,-1.041,-1.0467,-1.0485,-1.05,0,0,0,0,0,-0.9229,-0.9355,-0.9346,-0.9378,-0.9551,-0.9685,-0.9708,-0.9734,-0.9688,-0.9752,-0.9802,-0.9789,-1.0061,-0.9996,-1.003,-1.0115,-1.0386,-1.0398,-1.0409,-1.046,-1.0481,-1.0499,0,0,0,0,0,0,-0.9275,-0.9368,-0.9358,-0.9517,-0.9593,-0.9681,-0.9763,-0.9755,-0.9849,-0.9841,-0.9872,-0.9896,-1.0047,-1.0095,-1.002,-1.0282,-1.0218,-1.0237,-1.0245,-1.0266,-1.0282,-1.027,-0.9977,0,0,0,0,0,-0.9302,-0.9399,-0.9476,-0.961,-0.9647,-0.9698,-0.9757,-0.977,-0.9852,-0.9885,-0.9946,-1.0028,-1.0133,-1.0201,-1.0302,-1.0472,-1.0497,-1.0548,-1.0564,-1.0577,-1.0595,-1.0691,-1.0716,-1.0453,-1.0453,-1.0453,0,0,-0.9363,-0.9425,-0.9486,-0.962,-0.968,-0.9784,-0.9726,-0.9837,-0.9916,-0.9903,-1.0048,-1.0095,-1.019,-1.0351,-1.0425,-1.0396,-1.0671,-1.0591,-1.0601,-1.0612,-1.0706,-1.0731,-1.0753,-1.0461,-1.046,-1.0458,0,0,-0.9526,-0.9581,-0.9699,-0.9759,-0.9849,-0.9881,-0.9909,-0.9999,-1.0029,-1.0173,-1.0166,-1.0261,-1.0439,-1.0508,-1.0566,-1.0752,-1.0745,-1.0784,-1.0871,-1.0965,-1.0986,-1.1004,-1.1075,-1.1099,-1.08,-1.08,-1.08,0,-0.9591,-0.9743,-0.9761,-0.9874,-0.9935,-0.9922,-1.0044,-1.0103,-1.0223,-1.0267,-1.0231,-1.0455,-1.0517,-1.0696,-1.0741,-1.0787,-1.0824,-1.0775,-1.098,-1.0999,-1.1017,-1.1085,-1.1111,-1.0805,-1.0804,-1.0804,-1.0803,0,-0.982,-0.9925,-1.001,-1.0122,-1.0192,-1.0309,-1.0348,-1.0417,-1.0423,-1.0461,-1.061,-1.0683,-1.0799,-1.0841,-1.085,-1.1022,-1.1002,-1.0972,-1.0911,-1.1046,-1.1111,-1.1136,-1.0811,-1.0809,-1.0808,-1.0807,0,0,-1.0022,-1.0139,-1.0171,-1.0222,-1.0319,-1.0403,-1.052,-1.0629,-1.069,-1.0772,-1.0874,-1.1024,-1.0997,-1.1063,-1.1079,-1.116,-1.1308,-1.1122,-1.1125,-1.1158,-1.1506,-1.1531,-1.156,-1.1301,-1.1306,-1.131,-1.15,0,-1.0198,-1.0401,-1.042,-1.0604,-1.0704,-1.0692,-1.0794,-1.0867,-1.0905,-1.0998,-1.104,-1.1147,-1.1102,-1.1142,-1.1222,-1.1273,-1.1379,-1.1259,-1.1402,-1.1406,-1.1383,-1.1593,-1.162,-1.1796,-1.1525,-1.1529,-1.1532,0,-1.0432,-1.0517,-1.0709,-1.0793,-1.0835,-1.0926,-1.1029,-1.1115,-1.1199,-1.122,-1.1292,-1.1297,-1.1421,-1.135,-1.1524,-1.1442,-1.1501,-1.1534,-1.1542,-1.1561,-1.1481,-1.1622,-1.1852,-1.188,-1.1571,-1.1568,-1.1565,0,-1.0565,-1.0728,-1.0864,-1.0908,-1.1007,-1.1072,-1.1117,-1.1195,-1.126,-1.1349,-1.1393,-1.1497,-1.1555,-1.1638,-1.1672,-1.1616,-1.1846,-1.1776,-1.1872,-1.1871,-1.1925,-1.1922,-1.2172,-1.1955,-1.1954,-1.1954,-1.1953,0,-1.0763,-1.0882,-1.0925,-1.101,-1.1144,-1.1165,-1.1299,-1.1342,-1.1411,-1.1507,-1.1503,-1.1594,-1.163,-1.1728,-1.1755,-1.1898,-1.1923,-1.1948,-1.1955,-1.1951,-1.1949,-1.1994,-1.1985,-1.1961,-1.1959,-1.1958,-1.1957,0,-1.0937,-1.0969,-1.1118,-1.1198,-1.1221,-1.1317,-1.1388,-1.1472,-1.1506,-1.1627,-1.1657,-1.1713,-1.1828,-1.1868,-1.2008,-1.2026,-1.2193,-1.2187,-1.2164,-1.2167,-1.2262,-1.2254,-1.2554,-1.2596,-1.2346,-1.2348,-1.235,0,-1.1063,-1.1154,-1.1242,-1.1304,-1.135,-1.145,-1.1515,-1.1539,-1.1607,-1.1707,-1.178,-1.1893,-1.1985,-1.2169,-1.2225,-1.2333,-1.2333,-1.243,-1.235,-1.2343,-1.234,-1.2336,-1.2347,-1.2447,-1.245,-1.2452,-1.2453,0,-1.1285,-1.1296,-1.1387,-1.1484,-1.156,-1.1639,-1.1716,-1.1767,-1.1803,-1.1881,-1.1995,-1.2066,-1.2207,-1.2321,-1.243,-1.2481,-1.2477,-1.2477,-1.2506,-1.2506,-1.2491,-1.2505,-1.2211,-1.2472,-1.247,-1.2469,-1.2468,-1.2467,-1.1443,-1.1524,-1.1598,-1.17,-1.1759,-1.183,-1.1912,-1.1955,-1.205,-1.2164,-1.2173,-1.2298,-1.238,-1.2526,-1.2581,-1.2682,-1.2656,-1.2696,-1.2708,-1.2719,-1.2728,-1.2469,-1.2702,-1.2701,-1.2701,-1.2701,-1.27,0,-1.1669,-1.1715,-1.1808,-1.1913,-1.1994,-1.1974,-1.2057,-1.2128,-1.2236,-1.2311,-1.24,-1.2533,-1.2643,-1.2705,-1.2816,-1.2885,-1.2886,-1.2914,-1.2912,-1.2925,-1.2743,-1.2709,-1.2912,-1.2912,-1.2912,-1.2912,-1.2912,-1.2912,-1.1796,-1.1933,-1.1952,-1.2119,-1.2165,-1.2284,-1.2334,-1.2401,-1.246,-1.2608,-1.2697,-1.2735,-1.2806,-1.2922,-1.3023,-1.3039,-1.3082,-1.3114,-1.3128,-1.2959,-1.2937,-1.2917,-1.2885,-1.3122,-1.3122,-1.3303,-1.3304,-1.3305]},{"header":{"parameterUnit":"m.s-1","parameterCategory":1,"la1":30.2991,"la2":30.254,"lo1":-89.0895,"lo2":-89.0444,"dy":0.0017,"dx":0.0017,"nx":28,"ny":28,"refTime":"2025-01-14T09:00:00:Z","depth":0,"parameterNumber":3,"parameterNumberName":"V-component_of_WINDS"},"data":[0,0,0,0,0,0,0,0,0,0,0,0,0,0,0,0,0,0,0,0,0,0,0,0,0,0,0,0,0,0,0,0,0,0,0,0,0,0,0,0,0,0,0,0,0,0,0,0,0,0,0,0,0,0,0,0,0,0,-2.5345,-2.5345,0,-2.5386,-2.5386,-2.5387,-2.5354,-2.5352,-2.5351,-2.535,-2.5393,-2.5395,-2.5398,0,0,0,0,0,0,0,0,0,0,0,0,0,-2.5238,-2.524,-2.5345,-2.5345,-2.5346,-2.5386,-2.5386,-2.5387,-2.5354,-2.5352,-2.5351,-2.5349,-2.5392,-2.5395,-2.5398,0,0,0,0,0,0,0,0,0,0,0,0,0,-2.5282,-2.5241,-2.5345,-2.5334,-2.5334,-2.5385,-2.5386,-2.5387,-2.5354,-2.5352,-2.535,-2.5348,-2.5391,-2.5395,-2.5399,-2.5463,0,0,-2.541,-2.5411,0,0,0,0,0,0,0,0,-2.528,-2.5286,-2.5335,-2.5335,-2.5335,-2.5362,-2.5364,-2.5412,-2.5355,-2.5347,-2.535,-2.5347,-2.5385,-2.5389,-2.5401,-2.5465,-2.5467,-2.541,-2.5412,-2.5414,-2.5415,0,0,0,0,0,0,0,-2.5277,-2.5284,-2.5361,-2.5336,-2.5336,-2.5327,-2.5331,-2.5373,-2.5377,-2.5347,-2.5345,-2.535,-2.5384,-2.5398,-2.5402,-2.5468,-2.541,-2.5413,-2.5416,-2.5417,-2.5585,-2.5587,0,0,0,0,0,0,-2.5275,-2.5282,-2.536,-2.5362,-2.5301,-2.5331,-2.5335,-2.5356,-2.5376,-2.5377,-2.5352,-2.5348,-2.5392,-2.5398,-2.5403,-2.5479,-2.5414,-2.5417,-2.5419,-2.5582,-2.5585,-2.5588,0,0,0,0,0,0,-2.5273,-2.5282,-2.5358,-2.5321,-2.533,-2.5335,-2.5358,-2.5358,-2.5371,-2.538,-2.538,-2.5365,-2.5391,-2.5398,-2.5448,-2.5481,-2.5419,-2.5422,-2.558,-2.5583,-2.5586,-2.5633,0,0,0,0,0,0,-2.527,-2.5281,-2.5306,-2.5322,-2.5333,-2.5403,-2.536,-2.536,-2.5377,-2.5373,-2.5392,-2.5394,-2.539,-2.5443,-2.5452,-2.5485,-2.5425,-2.5577,-2.5581,-2.5585,-2.5629,-2.5638,-2.5645,0,0,0,0,0,-2.5266,-2.5319,-2.5308,-2.5318,-2.5364,-2.5405,-2.541,-2.5405,-2.538,-2.5405,-2.541,-2.5393,-2.5475,-2.5448,-2.5458,-2.5492,-2.5575,-2.558,-2.5585,-2.5625,-2.5636,-2.5645,0,0,0,0,0,0,-2.5308,-2.5321,-2.5309,-2.5369,-2.5385,-2.5399,-2.5431,-2.5417,-2.5442,-2.5437,-2.5428,-2.5433,-2.5485,-2.5494,-2.5463,-2.5555,-2.5521,-2.5528,-2.5548,-2.5559,-2.5567,-2.5564,-2.5428,0,0,0,0,0,-2.5324,-2.5356,-2.5365,-2.5417,-2.5426,-2.5427,-2.5444,-2.5438,-2.5455,-2.5463,-2.5472,-2.5489,-2.5519,-2.5539,-2.5567,-2.5629,-2.5632,-2.5657,-2.5665,-2.5672,-2.5679,-2.5711,-2.5722,-2.5604,-2.5604,-2.5604,0,0,-2.5359,-2.5369,-2.539,-2.5426,-2.5438,-2.5471,-2.5433,-2.547,-2.5494,-2.5468,-2.5516,-2.5523,-2.5542,-2.5598,-2.5623,-2.5606,-2.5712,-2.5679,-2.5684,-2.5687,-2.5717,-2.5729,-2.5739,-2.5608,-2.5607,-2.5606,0,0,-2.5438,-2.5449,-2.5492,-2.5505,-2.5523,-2.5523,-2.5533,-2.5548,-2.5551,-2.5598,-2.5579,-2.5607,-2.5659,-2.5673,-2.5687,-2.5767,-2.5752,-2.5776,-2.582,-2.5852,-2.5861,-2.5869,-2.5898,-2.5908,-2.5783,-2.5783,-2.5783,0,-2.5478,-2.5527,-2.5517,-2.5554,-2.557,-2.5546,-2.559,-2.5602,-2.563,-2.5641,-2.5621,-2.5684,-2.5695,-2.5753,-2.5773,-2.5785,-2.5796,-2.5775,-2.586,-2.5868,-2.5876,-2.5903,-2.5914,-2.5786,-2.5785,-2.5785,-2.5785,0,-2.5575,-2.5609,-2.5641,-2.5667,-2.5686,-2.5726,-2.5722,-2.5743,-2.5733,-2.5735,-2.5782,-2.5794,-2.5823,-2.5836,-2.5828,-2.5893,-2.5882,-2.5861,-2.5827,-2.589,-2.5915,-2.5926,-2.579,-2.5789,-2.5788,-2.5787,0,0,-2.5686,-2.5702,-2.5714,-2.5725,-2.5741,-2.5767,-2.5806,-2.5833,-2.585,-2.5869,-2.5901,-2.5943,-2.5923,-2.5939,-2.5932,-2.5959,-2.6021,-2.5935,-2.5936,-2.5951,-2.6092,-2.6108,-2.612,-2.601,-2.6012,-2.6014,-2.609,0,-2.5766,-2.5832,-2.5823,-2.5887,-2.5917,-2.5893,-2.5926,-2.594,-2.5941,-2.5967,-2.5968,-2.5998,-2.597,-2.5979,-2.6005,-2.6008,-2.605,-2.6002,-2.604,-2.6042,-2.6037,-2.6133,-2.6151,-2.6223,-2.61,-2.6102,-2.6103,0,-2.5869,-2.5889,-2.5956,-2.5966,-2.5978,-2.6008,-2.6031,-2.6056,-2.607,-2.6069,-2.6084,-2.6072,-2.6109,-2.6073,-2.6124,-2.6092,-2.6106,-2.611,-2.6113,-2.6117,-2.6077,-2.6141,-2.6246,-2.6257,-2.6119,-2.6117,-2.6116,0,-2.5943,-2.5987,-2.6032,-2.6041,-2.6054,-2.6075,-2.6082,-2.6094,-2.611,-2.6129,-2.614,-2.6164,-2.6177,-2.6196,-2.619,-2.6164,-2.6242,-2.6205,-2.6242,-2.6243,-2.6262,-2.6261,-2.6371,-2.6269,-2.6269,-2.6269,-2.6268,0,-2.6034,-2.6076,-2.6065,-2.6093,-2.6139,-2.6126,-2.6172,-2.6175,-2.6185,-2.6213,-2.6193,-2.6219,-2.6208,-2.6234,-2.6229,-2.6272,-2.6278,-2.6278,-2.6277,-2.6281,-2.6281,-2.6291,-2.6287,-2.6272,-2.6271,-2.627,-2.627,0,-2.6126,-2.6121,-2.6168,-2.6175,-2.6177,-2.621,-2.6216,-2.6242,-2.624,-2.6275,-2.6282,-2.628,-2.6309,-2.6303,-2.6336,-2.6332,-2.6386,-2.6377,-2.6381,-2.6379,-2.6417,-2.6414,-2.6539,-2.6554,-2.6441,-2.6442,-2.6443,0,-2.6186,-2.6217,-2.6226,-2.6242,-2.625,-2.6277,-2.6292,-2.628,-2.6297,-2.6314,-2.6338,-2.6364,-2.6385,-2.6431,-2.6433,-2.6457,-2.6449,-2.6491,-2.6453,-2.6456,-2.645,-2.6449,-2.6452,-2.65,-2.6501,-2.6502,-2.6503,0,-2.6292,-2.6287,-2.631,-2.6331,-2.6349,-2.6366,-2.638,-2.6395,-2.6384,-2.6404,-2.6432,-2.6448,-2.6479,-2.6505,-2.6527,-2.6533,-2.6516,-2.6514,-2.6524,-2.653,-2.6531,-2.6531,-2.6403,-2.6512,-2.6511,-2.6511,-2.651,-2.651,-2.637,-2.6396,-2.6406,-2.6431,-2.644,-2.6453,-2.6477,-2.6477,-2.65,-2.6524,-2.6515,-2.6547,-2.6557,-2.6584,-2.6593,-2.6617,-2.6602,-2.6616,-2.662,-2.6624,-2.6629,-2.6525,-2.6621,-2.6621,-2.662,-2.662,-2.662,0,-2.6476,-2.648,-2.6503,-2.6523,-2.6542,-2.6522,-2.6536,-2.6554,-2.6582,-2.6593,-2.6613,-2.6644,-2.6669,-2.667,-2.6693,-2.6713,-2.6705,-2.6719,-2.6719,-2.672,-2.6641,-2.6631,-2.6724,-2.6724,-2.6724,-2.6724,-2.6724,-2.6724,-2.6533,-2.6576,-2.6571,-2.6616,-2.662,-2.665,-2.666,-2.6672,-2.668,-2.6715,-2.6735,-2.6735,-2.6742,-2.6765,-2.6786,-2.6786,-2.6795,-2.6812,-2.6809,-2.6736,-2.6726,-2.6716,-2.6706,-2.6814,-2.6814,-2.6886,-2.6887,-2.6887]}]]